Stations météo

réclame
Mon MeteoGroup
Saarbrücken-Ensheim, Allemagne (10708): Température de l'air & dewpoint: 17.09.2018 02:00:00 - 23.09.2018 02:00:00 (CEST)Saarbrücken-Ensheim, Allemagne (10708): Température de l'air 5cm & Température de l'air -5cm: 17.09.2018 02:00:00 - 23.09.2018 02:00:00 (CEST)Saarbrücken-Ensheim, Allemagne (10708): Température de l'air -20cm & Température de l'air -100cm: 17.09.2018 02:00:00 - 23.09.2018 02:00:00 (CEST)Saarbrücken-Ensheim, Allemagne (10708): Vitesse du vent & gusts: 17.09.2018 02:00:00 - 23.09.2018 02:00:00 (CEST)Saarbrücken-Ensheim, Allemagne (10708): Direction du vent: 17.09.2018 02:00:00 - 23.09.2018 02:00:00 (CEST)Saarbrücken-Ensheim, Allemagne (10708): reduced air pressure: 17.09.2018 02:00:00 - 23.09.2018 02:00:00 (CEST)Saarbrücken-Ensheim, Allemagne (10708): visibility: 17.09.2018 02:00:00 - 23.09.2018 02:00:00 (CEST)Saarbrücken-Ensheim, Allemagne (10708): Ensoleillement: 17.09.2018 02:00:00 - 23.09.2018 02:00:00 (CEST)Saarbrücken-Ensheim, Allemagne (10708): Quantités de précipitations: 17.09.2018 02:00:00 - 23.09.2018 02:00:00 (CEST)
Date & Time tt [°C] td [°C] tt 5cm [°C] tt -5cm [°C] tt -20cm [°C] tt -100cm [°C] ff [km/h] ff [knt] fx [km/h] fx [knt] dd ppp [hPa] vv [km] sd [min] rr [mm]
23.09.2018 02:00:00 10,7 9,5 10,4 14,6 17,5 19,0 5 3 16 9 ESE 1018,6 10 0 0,2
23.09.2018 01:00:00 10,8 9,6 10,4 15,0 17,7 19,0 7 4 14 7 ESE 1019,2 10 0 0,2
23.09.2018 00:00:00 11,3 8,9 10,4 15,4 17,9 19,0 9 5 16 9 SSW 1020,0 16 0 0,2
22.09.2018 23:00:00 11,5 9,2 10,8 15,7 18,1 19,0 0 0 4 2 N 1020,4 55 0 0,0
22.09.2018 22:00:00 11,8 9,8 11,0 16,2 18,4 19,0 3 1 8 4 SSE 1020,7 60 0 0,1
22.09.2018 21:00:00 12,1 8,4 11,2 16,8 18,6 19,0 3 1 5 3 SSE 1020,5 50 0 0,1
22.09.2018 20:00:00 12,9 8,0 11,2 17,7 18,8 19,0 5 3 16 9 W 1020,5 10 0 0,1
22.09.2018 19:00:00 15,1 4,3 14,8 18,8 18,9 19,0 11 6 21 11 W 1020,6 45 0 0,0
22.09.2018 18:00:00 15,8 4,4 16,3 19,7 18,8 19,0 15 8 24 13 WSW 1020,4 10 0 0,0
22.09.2018 17:00:00 15,9 4,1 16,8 20,7 18,6 19,0 17 9 31 17 W 1021,2 50 0 0,0
22.09.2018 16:00:00 16,4 4,7 18,3 21,4 18,3 19,1 22 12 33 18 WSW 1021,6 50 6 0,0
22.09.2018 15:00:00 16,5 4,7 19,3 21,4 17,8 19,1 22 12 34 18 SW 1022,0 50 24 0,0
22.09.2018 14:00:00 15,0 4,9 17,0 21,8 17,1 19,1 19 11 31 17 W 1022,7 50 31 0,0
22.09.2018 13:00:00 16,1 6,4 22,3 21,0 16,3 19,1 21 11 35 19 WSW 1023,0 10 60 0,0
22.09.2018 12:00:00 14,4 7,1 18,4 17,2 15,8 19,1 21 11 27 15 SW 1023,5 10 59 0,0
22.09.2018 11:00:00 12,2 6,8 14,6 14,3 15,6 19,1 21 11 26 14 W 1024,7 10 37 0,0
22.09.2018 10:00:00 11,1 6,1 13,0 12,5 15,5 19,1 16 9 24 13 SW 1024,1 10 31 0,0
22.09.2018 09:00:00 9,4 5,8 9,3 11,2 15,6 19,1 9 5 13 7 WSW 1024,5 50 1 0,0
22.09.2018 08:00:00 8,3 5,8 7,0 10,7 15,8 19,1 9 5 21 11 WSW 1024,5 10 0 0,0
22.09.2018 07:00:00 8,2 5,3 6,4 10,9 16,0 19,1 9 5 16 9 SW 1023,9 10 0 0,0
22.09.2018 06:00:00 8,4 5,1 7,0 10,9 16,3 19,1 4 2 18 10 S 1023,5 45 0 0,0
22.09.2018 05:00:00 7,9 4,5 4,9 11,2 16,6 19,1 6 3 16 9 SW 1023,6 45 0 0,0
22.09.2018 04:00:00 9,1 4,4 7,3 11,5 16,8 19,1 9 5 21 11 WSW 1023,3 45 0 0,0
22.09.2018 03:00:00 10,1 4,0 8,1 11,7 17,1 19,1 15 8 23 13 W 1023,0 45 0 0,0
22.09.2018 02:00:00 10,3 4,2 8,2 12,1 17,5 19,1 16 9 28 15 WSW 1022,3 10 0 0,0
22.09.2018 01:00:00 10,8 4,6 9,0 12,5 17,8 19,1 19 10 28 15 W 1021,8 45 0 0,0
22.09.2018 00:00:00 10,2 5,0 8,0 13,0 18,2 19,1 14 7 22 12 W 1021,4 45 0 0,0
21.09.2018 23:00:00 11,5 5,2 9,4 13,7 18,6 19,1 18 10 22 12 W 1020,6 10 0 0,0
21.09.2018 22:00:00 12,2 5,7 10,2 14,3 19,0 19,1 13 7 27 14 W 1020,0 10 0 0,0
21.09.2018 21:00:00 13,1 5,8 11,2 14,9 19,4 19,1 18 10 29 15 W 1018,7 45 0 0,0
21.09.2018 20:00:00 13,1 6,0 11,4 15,8 19,8 19,1 21 11 44 24 W 1017,5 10 2 0,0
21.09.2018 19:00:00 13,6 6,3 11,1 17,6 20,0 19,1 31 17 42 23 W 1015,9 50 22 0,0
21.09.2018 18:00:00 14,0 11,3 14,0 18,2 20,2 19,1 22 12 34 18 W 1015,1 10 12 0,0
21.09.2018 17:00:00 12,8 11,6 13,3 18,0 20,5 19,0 22 12 34 18 W 1014,5 32 0 0,3
21.09.2018 16:00:00 11,8 10,8 12,0 18,6 20,8 19,0 21 11 44 24 W 1014,0 10 0 0,4
21.09.2018 15:00:00 12,9 11,5 12,7 20,4 20,9 19,0 31 17 54 29 WNW 1012,9 10 0 0,8
21.09.2018 14:00:00 18,2 14,4 16,9 22,0 20,7 19,0 28 15 57 31 W 1011,0 45 0 0,1
21.09.2018 13:00:00 21,1 11,6 22,5 22,9 20,3 19,0 37 20 55 30 WSW 1009,9 10 12 0,0
21.09.2018 12:00:00 21,8 12,2 23,0 21,5 20,1 19,0 31 17 52 28 SW 1010,1 10 8 0,0
21.09.2018 11:00:00 20,6 13,4 21,6 20,2 19,9 19,0 26 14 37 20 SW 1010,6 10 5 0,0
21.09.2018 10:00:00 19,3 13,4 20,1 18,9 19,8 19,0 16 9 26 14 SW 1010,6 50 13 0,0
21.09.2018 09:00:00 18,2 13,0 18,1 17,8 19,9 19,0 14 8 26 14 SW 1010,7 50 15 0,0
21.09.2018 08:00:00 17,6 12,7 16,2 17,4 20,1 19,0 16 9 25 14 SSW 1010,1 10 0 0,0
21.09.2018 07:00:00 17,2 12,5 13,9 17,7 20,3 19,0 13 7 31 17 SW 1010,3 40 0 0,0
21.09.2018 06:00:00 18,1 12,7 16,8 17,7 20,5 19,0 10 6 18 10 SSW 1010,6 40 0 0,0
21.09.2018 05:00:00 17,5 12,7 15,3 17,9 20,8 19,0 8 4 16 9 SSW 1011,4 10 0 0,0
21.09.2018 04:00:00 18,5 12,8 16,2 18,2 21,1 19,0 11 6 18 10 SSW 1011,8 10 0 0,0
21.09.2018 03:00:00 17,7 12,6 13,5 18,6 21,4 19,0 9 5 18 10 SSW 1012,6 10 0 0,0
21.09.2018 02:00:00 19,0 12,7 15,8 19,0 21,7 19,0 11 6 18 10 SSW 1012,9 10 0 0,0
21.09.2018 01:00:00 19,4 12,7 14,4 19,4 22,2 19,0 8 4 13 7 SSW 1013,2 40 0 0,0
21.09.2018 00:00:00 19,7 13,3 14,1 20,1 22,6 19,0 5 3 15 8 SSW 1013,6 10 0 0,0
20.09.2018 23:00:00 18,4 13,4 12,8 21,0 23,1 19,0 4 2 8 4 - 1014,4 10 0 0,0
20.09.2018 22:00:00 18,1 13,6 13,8 22,1 23,6 19,0 4 2 7 4 S 1014,9 50 0 0,0
20.09.2018 21:00:00 17,3 13,2 13,8 23,6 24,0 19,0 5 3 8 4 SE 1015,4 10 0 0,0
20.09.2018 20:00:00 20,9 13,4 15,9 25,6 24,3 19,0 9 5 12 7 SW 1015,2 10 8 0,0
20.09.2018 19:00:00 24,6 13,3 22,5 27,9 24,4 19,0 9 5 20 11 SW 1015,2 10 60 0,0
20.09.2018 18:00:00 25,8 13,0 26,8 29,7 24,2 19,0 16 9 29 16 WSW 1015,6 10 60 0,0
20.09.2018 17:00:00 25,8 12,7 29,1 30,8 23,7 19,0 24 13 31 17 W 1016,3 10 60 0,0
20.09.2018 16:00:00 26,2 13,1 30,0 31,1 23,1 19,0 18 10 32 17 WSW 1016,9 60 58 0,0
20.09.2018 15:00:00 26,0 12,6 30,4 30,9 22,2 19,0 24 13 35 19 SW 1017,4 10 60 0,0
20.09.2018 14:00:00 25,4 13,0 29,7 29,5 21,3 19,0 21 11 34 18 WSW 1018,1 10 60 0,0
20.09.2018 13:00:00 23,9 13,4 30,0 27,4 20,5 19,0 18 10 31 17 WSW 1018,9 45 60 0,0
20.09.2018 12:00:00 22,9 13,0 27,8 24,8 19,8 19,0 15 8 28 15 SW 1019,7 10 60 0,0
20.09.2018 11:00:00 21,1 13,5 25,8 21,7 19,3 19,0 11 6 18 10 SW 1020,1 35 60 0,0
20.09.2018 10:00:00 19,7 13,5 22,7 18,7 19,2 19,0 5 3 9 5 S 1020,2 10 60 0,0
20.09.2018 09:00:00 17,0 13,9 16,7 16,3 19,4 18,9 6 3 9 5 S 1020,4 30 60 0,0
20.09.2018 08:00:00 12,7 11,9 10,4 15,7 19,7 18,9 4 2 8 4 - 1020,9 10 0 0,0
20.09.2018 07:00:00 12,7 12,1 10,0 16,1 20,0 18,9 2 1 4 2 ESE 1020,8 30 0 0,0
20.09.2018 06:00:00 13,1 12,4 10,0 16,6 20,3 18,9 2 1 5 3 NE 1020,6 30 0 0,0
20.09.2018 05:00:00 13,9 13,2 10,2 17,1 20,6 18,9 0 0 0 0 N 1020,5 30 0 0,0
20.09.2018 04:00:00 14,3 12,7 11,1 17,6 21,0 18,9 2 1 5 3 - 1020,2 10 0 0,0
20.09.2018 03:00:00 14,9 13,5 11,9 18,2 21,3 18,9 4 2 5 3 E 1020,3 10 0 0,0
20.09.2018 02:00:00 15,5 13,9 12,1 18,8 21,7 18,9 4 2 4 2 - 1020,5 10 0 0,0
20.09.2018 01:00:00 16,1 14,1 12,2 19,5 22,2 18,9 2 1 5 3 SSW 1020,5 40 0 0,0
20.09.2018 00:00:00 16,8 14,3 13,6 20,3 22,6 18,9 5 3 9 5 W 1020,2 10 0 0,0
19.09.2018 23:00:00 17,4 14,4 14,2 21,2 23,0 18,9 4 2 8 4 SE 1019,9 10 0 0,0
19.09.2018 22:00:00 18,6 14,1 14,9 22,4 23,5 18,9 2 1 4 2 - 1019,5 10 0 0,0
19.09.2018 21:00:00 20,1 14,1 15,8 23,8 23,9 18,9 2 1 9 5 - 1019,1 10 0 0,0
19.09.2018 20:00:00 23,0 13,9 17,5 25,6 24,2 18,9 8 4 15 8 W 1018,4 10 14 0,0
19.09.2018 19:00:00 26,0 13,4 24,3 27,8 24,2 18,9 12 6 29 16 WSW 1017,7 60 59 0,0
19.09.2018 18:00:00 27,2 13,0 28,4 29,4 24,0 18,9 18 10 32 17 W 1017,6 60 59 0,0
19.09.2018 17:00:00 27,2 13,2 29,3 30,2 23,6 18,9 18 10 34 18 WSW 1017,7 10 39 0,0
19.09.2018 16:00:00 28,4 12,8 31,7 30,8 22,9 18,9 21 11 40 22 WSW 1017,9 10 49 0,0
19.09.2018 15:00:00 27,4 12,7 31,9 30,8 22,1 18,9 21 11 36 19 SW 1018,4 10 60 0,0
19.09.2018 14:00:00 27,0 13,0 31,7 29,3 21,2 18,9 16 9 26 14 SW 1018,7 10 60 0,0
19.09.2018 13:00:00 24,9 13,5 29,0 26,8 20,4 18,9 13 7 22 12 SSW 1019,4 10 52 0,0
19.09.2018 12:00:00 23,6 14,2 26,1 24,6 19,7 18,9 11 6 15 8 SW 1019,8 10 59 0,0
19.09.2018 11:00:00 22,6 14,6 25,6 21,5 19,3 18,9 8 4 13 7 S 1019,8 10 59 0,0
19.09.2018 10:00:00 20,1 14,2 21,6 18,9 19,2 18,9 4 2 9 5 S 1019,7 45 60 0,0
19.09.2018 09:00:00 17,7 14,5 18,6 16,7 19,3 18,9 3 2 5 3 E 1019,7 40 60 0,0
19.09.2018 08:00:00 14,3 13,2 11,7 15,9 19,6 18,9 2 1 5 3 - 1020,0 10 6 0,0
19.09.2018 07:00:00 13,9 12,4 11,1 16,3 19,9 18,9 0 0 5 3 N 1019,7 35 0 0,0
19.09.2018 06:00:00 14,4 12,6 11,1 16,8 20,2 18,9 0 0 4 2 N 1019,3 30 0 0,0
19.09.2018 05:00:00 14,9 12,7 12,3 17,3 20,6 18,9 4 2 4 2 E 1019,1 10 0 0,0
19.09.2018 04:00:00 15,6 13,1 12,3 17,9 20,9 18,9 4 2 5 3 E 1018,8 30 0 0,0
19.09.2018 03:00:00 16,9 13,5 13,1 18,6 21,2 18,9 0 0 4 2 N 1018,7 40 0 0,0
19.09.2018 02:00:00 18,7 13,5 16,1 19,0 21,6 18,9 2 1 11 6 - 1018,2 10 0 0,0
19.09.2018 01:00:00 17,6 13,6 14,4 19,6 21,9 18,9 5 3 8 4 ESE 1018,0 10 0 0,0
19.09.2018 00:00:00 18,3 12,8 15,4 20,1 22,4 18,9 5 3 9 5 W 1017,8 10 0 0,0
18.09.2018 23:00:00 18,4 13,0 14,7 20,7 22,9 18,9 8 4 11 6 WNW 1017,3 10 0 0,0
18.09.2018 22:00:00 19,5 13,7 14,6 22,0 23,4 18,9 8 4 21 11 W 1017,1 10 0 0,0
18.09.2018 21:00:00 21,4 14,4 16,3 23,8 23,9 18,9 8 4 18 10 W 1016,2 10 0 0,0
18.09.2018 20:00:00 23,1 15,6 18,9 26,0 24,1 18,9 13 7 20 11 SW 1015,3 10 24 0,0
18.09.2018 19:00:00 25,2 17,9 22,5 28,4 24,1 18,9 11 6 44 24 WSW 1014,3 10 38 1,7
18.09.2018 18:00:00 28,3 14,2 30,3 30,6 23,7 18,9 15 8 31 17 W 1013,9 10 38 0,0
18.09.2018 17:00:00 28,8 14,4 32,4 31,1 23,1 18,9 21 11 32 17 SW 1013,9 10 51 0,0
18.09.2018 16:00:00 28,8 14,5 32,9 30,9 22,4 18,9 21 11 36 20 SW 1014,0 50 55 0,0
18.09.2018 15:00:00 28,2 14,7 33,0 29,9 21,6 18,9 22 12 37 20 SW 1014,6 50 60 0,0
18.09.2018 14:00:00 26,5 14,8 30,1 28,2 20,8 18,9 16 9 34 18 SSW 1015,2 60 54 0,0
18.09.2018 13:00:00 26,5 14,3 31,1 26,9 20,0 18,9 18 10 31 17 WSW 1015,5 60 60 0,0
18.09.2018 12:00:00 24,6 14,1 29,7 24,2 19,3 18,9 16 9 26 14 SW 1015,9 10 60 0,0
18.09.2018 11:00:00 22,2 14,0 26,1 21,1 18,9 18,9 15 8 34 18 SW 1015,9 50 60 0,0
18.09.2018 10:00:00 19,9 13,2 22,2 18,6 18,8 18,9 22 12 34 18 SSW 1016,1 10 60 0,0
18.09.2018 09:00:00 19,2 12,7 20,3 16,6 18,8 18,9 18 10 31 17 SSW 1015,9 10 60 0,0
18.09.2018 08:00:00 18,0 11,7 15,1 15,7 19,1 18,9 13 7 21 11 S 1015,7 50 26 0,0
18.09.2018 07:00:00 16,2 9,8 9,9 15,8 19,3 18,9 4 2 8 4 - 1015,7 10 0 0,0
18.09.2018 06:00:00 15,4 9,4 9,7 16,2 19,6 18,9 5 3 9 5 ESE 1015,9 10 0 0,0
18.09.2018 05:00:00 14,8 9,4 10,1 16,6 19,9 18,9 6 3 8 4 E 1016,0 50 0 0,0
18.09.2018 04:00:00 14,5 8,9 9,8 17,1 20,3 18,9 5 3 9 5 E 1016,0 50 0 0,0
18.09.2018 03:00:00 16,0 9,0 10,6 17,6 20,6 18,9 6 4 13 7 E 1016,0 50 0 0,0
18.09.2018 02:00:00 16,5 8,7 12,6 18,2 21,0 18,9 9 5 16 9 E 1016,2 10 0 0,0
18.09.2018 01:00:00 17,4 9,4 11,9 18,9 21,4 18,9 10 6 15 8 E 1016,5 50 0 0,0
18.09.2018 00:00:00 17,5 10,2 11,9 19,7 21,8 18,9 9 5 12 7 E 1016,5 10 0 0,0
17.09.2018 23:00:00 16,9 10,0 14,5 20,6 22,3 18,9 9 5 11 6 E 1016,6 50 0 0,0
17.09.2018 22:00:00 18,0 10,8 13,1 21,7 22,8 18,9 5 3 9 5 E 1016,8 10 0 0,0
17.09.2018 21:00:00 18,5 10,5 13,8 23,4 23,2 18,9 9 5 11 6 E 1016,8 10 0 0,0
17.09.2018 20:00:00 20,4 10,3 16,4 25,5 23,4 18,9 6 4 8 4 E 1016,5 70 34 0,0
17.09.2018 19:00:00 25,9 7,4 22,8 27,9 23,4 18,9 4 2 15 8 - 1015,9 10 60 0,0
17.09.2018 18:00:00 26,4 7,0 28,0 29,6 23,1 18,9 10 5 21 11 SW 1016,3 70 60 0,0
17.09.2018 17:00:00 26,8 5,7 30,3 30,6 22,5 18,9 13 7 23 13 WSW 1016,8 10 60 0,0
17.09.2018 16:00:00 27,0 6,7 31,3 30,6 21,7 18,9 9 5 22 12 S 1017,3 10 60 0,0
17.09.2018 15:00:00 26,5 6,8 31,2 29,8 20,8 18,9 15 8 25 13 SW 1017,9 10 60 0,0
17.09.2018 14:00:00 25,6 8,4 29,7 28,3 19,8 18,9 10 5 21 11 SSW 1018,8 60 60 0,0
17.09.2018 13:00:00 24,1 8,5 28,4 25,9 18,9 18,9 13 7 22 12 SSW 1019,5 10 60 0,0
17.09.2018 12:00:00 23,0 8,3 27,4 23,0 18,2 18,9 12 6 17 9 S 1020,0 60 60 0,0
17.09.2018 11:00:00 20,8 9,2 24,5 19,9 17,8 18,9 7 4 11 6 S 1020,5 40 60 0,0
17.09.2018 10:00:00 17,4 9,7 19,3 16,7 17,6 18,9 5 3 8 4 SE 1020,8 10 60 0,0
17.09.2018 09:00:00 14,2 11,1 14,9 14,3 17,8 18,9 4 2 5 3 - 1021,4 10 60 0,0
17.09.2018 08:00:00 10,4 9,2 7,2 13,7 18,1 18,9 2 1 8 4 - 1021,9 10 30 0,0
17.09.2018 07:00:00 10,2 9,5 5,7 14,0 18,4 18,9 4 2 8 4 - 1021,5 10 0 0,0
17.09.2018 06:00:00 10,4 9,6 6,1 14,5 18,7 18,9 0 0 8 4 N 1021,5 35 0 0,0
17.09.2018 05:00:00 10,9 9,2 6,3 15,0 19,0 18,9 2 1 5 3 ESE 1021,5 40 0 0,0
17.09.2018 04:00:00 11,5 9,7 7,3 15,5 19,4 19,0 4 2 5 3 E 1021,1 50 0 0,0
17.09.2018 03:00:00 12,1 9,8 7,8 16,1 19,7 19,0 5 3 5 3 E 1021,1 50 0 0,0
17.09.2018 02:00:00 12,2 9,7 8,0 16,7 20,1 19,0 2 1 5 3 - 1021,3 10 0 0,0

tt = Température de l'air
td = dewpoint
tt 5cm = Température de l'air 5cm
tt -5cm = Température de l'air -5cm
tt -20cm = Température de l'air -20cm
tt -100cm = Température de l'air -100cm
ff = Vitesse du vent
fx = gusts
dd = Direction du vent
ppp = reduced air pressure
vv = visibility
sd = Ensoleillement
rr = Quantités de précipitations

stations d'obs. à proximité